RCH574 ETAD-LLBG

Flight info

Callsign RCH574
Flight time N/A
Altitude 35000
Route ROPUV L607 UBIDU L984 SULUS Z650 VEMUT DCT PEPIK DCT BERVA DCT ERGOM DCT TEGRI DCT OSTOV DCT NIKTI/N0480F370 DCT AKINA DCT VAXOS UN134 VANZA DCT PIKOG L609 ZUKKO
Aircraft MD11/H-SDE1E2E3FGHIJ2J3J4J5M1RWXY/LB1D1

Departure

Time N/A
Airport Spangdahlem Air Base (ETAD)

Arrival

Time 2026-05-06 13:13
Airport Ben Gurion International Airport (LLBG)
Time Latitude Longitude Altitude Speed Heading
2026-05-06 12:46 33.15774 33.03911 31443 ft 535 kts 127°
2026-05-06 12:46 33.13742 33.07635 30799 ft 537 kts 127°
2026-05-06 12:47 33.11697 33.11373 30115 ft 539 kts 127°
2026-05-06 12:47 33.09645 33.15122 29434 ft 541 kts 127°
2026-05-06 12:47 33.07583 33.18887 28753 ft 542 kts 127°
2026-05-06 12:47 33.05515 33.22655 28073 ft 544 kts 126°
2026-05-06 12:48 33.03443 33.26429 27396 ft 544 kts 126°
2026-05-06 12:48 33.01380 33.30189 26712 ft 540 kts 126°
2026-05-06 12:48 32.99331 33.33908 26038 ft 534 kts 126°
2026-05-06 12:48 32.97296 33.37583 25364 ft 529 kts 126°
2026-05-06 12:49 32.95275 33.41209 24972 ft 521 kts 127°
2026-05-06 12:49 32.93197 33.44753 24971 ft 521 kts 129°
2026-05-06 12:49 32.91074 33.48244 24969 ft 521 kts 129°
2026-05-06 12:49 32.88932 33.51720 24968 ft 521 kts 129°
2026-05-06 12:50 32.86786 33.55200 24767 ft 523 kts 129°
2026-05-06 12:50 32.84652 33.58671 23985 ft 517 kts 129°
2026-05-06 12:50 32.82548 33.62110 23224 ft 511 kts 129°
2026-05-06 12:50 32.80470 33.65510 22473 ft 506 kts 129°
2026-05-06 12:51 32.78418 33.68874 21742 ft 499 kts 129°
2026-05-06 12:51 32.76391 33.72191 21016 ft 493 kts 129°
2026-05-06 12:51 32.74388 33.75469 20298 ft 487 kts 129°
2026-05-06 12:51 32.72406 33.78706 19581 ft 482 kts 129°
2026-05-06 12:52 32.70446 33.81905 18883 ft 476 kts 129°
2026-05-06 12:52 32.68509 33.85067 18185 ft 471 kts 129°
2026-05-06 12:52 32.66592 33.88191 17498 ft 465 kts 129°
2026-05-06 12:52 32.64698 33.91274 16824 ft 459 kts 129°
2026-05-06 12:53 32.62830 33.94314 16155 ft 453 kts 128°
2026-05-06 12:53 32.60983 33.97317 15495 ft 447 kts 128°
2026-05-06 12:53 32.59162 34.00274 14844 ft 441 kts 128°
2026-05-06 12:53 32.57366 34.03189 14201 ft 435 kts 129°
2026-05-06 12:54 32.55595 34.06060 13566 ft 429 kts 128°
2026-05-06 12:54 32.53842 34.08899 12947 ft 424 kts 128°
2026-05-06 12:54 32.52113 34.11698 12333 ft 418 kts 128°
2026-05-06 12:54 32.50407 34.14461 11770 ft 413 kts 128°
2026-05-06 12:55 32.48722 34.17186 11441 ft 408 kts 128°
2026-05-06 12:55 32.47082 34.19828 11312 ft 386 kts 128°
2026-05-06 12:55 32.45536 34.22309 11178 ft 364 kts 128°
2026-05-06 12:55 32.44072 34.24658 11053 ft 345 kts 128°
2026-05-06 12:56 32.42682 34.26889 10907 ft 329 kts 128°
2026-05-06 12:56 32.41352 34.29026 10648 ft 318 kts 128°
2026-05-06 12:56 32.40044 34.31124 10128 ft 317 kts 128°
2026-05-06 12:56 32.38734 34.33223 9600 ft 316 kts 128°
2026-05-06 12:57 32.37460 34.35299 9332 ft 306 kts 126°
2026-05-06 12:57 32.36325 34.37349 9278 ft 291 kts 123°
2026-05-06 12:57 32.35264 34.39366 9275 ft 288 kts 123°
2026-05-06 12:57 32.34219 34.41374 9274 ft 286 kts 123°
2026-05-06 12:58 32.33190 34.43354 9275 ft 286 kts 123°
2026-05-06 12:58 32.32147 34.45361 9274 ft 286 kts 123°
2026-05-06 12:58 32.31104 34.47369 9274 ft 287 kts 123°
2026-05-06 12:58 32.30061 34.49374 9274 ft 286 kts 123°
2026-05-06 12:59 32.29019 34.51377 9275 ft 286 kts 123°
2026-05-06 12:59 32.27976 34.53383 9281 ft 287 kts 123°
2026-05-06 12:59 32.26930 34.55390 9276 ft 287 kts 123°
2026-05-06 12:59 32.25885 34.57393 9275 ft 287 kts 123°
2026-05-06 13:00 32.24840 34.59398 9275 ft 287 kts 123°
2026-05-06 13:00 32.23795 34.61400 9276 ft 286 kts 123°
2026-05-06 13:00 32.22749 34.63401 9274 ft 287 kts 123°
2026-05-06 13:00 32.21704 34.65404 9274 ft 287 kts 123°
2026-05-06 13:01 32.20656 34.67409 9275 ft 287 kts 123°
2026-05-06 13:01 32.19613 34.69406 9275 ft 287 kts 123°
2026-05-06 13:01 32.18566 34.71408 9274 ft 287 kts 123°
2026-05-06 13:01 32.17519 34.73411 9274 ft 287 kts 123°
2026-05-06 13:02 32.16470 34.75413 9275 ft 287 kts 123°
2026-05-06 13:02 32.15455 34.77440 9277 ft 287 kts 119°
2026-05-06 13:02 32.14558 34.79547 9275 ft 288 kts 117°
2026-05-06 13:02 32.13704 34.81684 9273 ft 288 kts 116°
2026-05-06 13:03 32.12860 34.83830 9274 ft 288 kts 116°
2026-05-06 13:03 32.12017 34.85975 9276 ft 288 kts 116°
2026-05-06 13:03 32.11172 34.88117 9273 ft 289 kts 116°
2026-05-06 13:03 32.10324 34.90265 9273 ft 289 kts 116°
2026-05-06 13:04 32.09487 34.92381 9276 ft 288 kts 116°
2026-05-06 13:04 32.08638 34.94523 9276 ft 288 kts 116°
2026-05-06 13:04 32.07786 34.96671 9230 ft 290 kts 116°
2026-05-06 13:04 32.06935 34.98814 9134 ft 288 kts 116°
2026-05-06 13:05 32.06082 35.00966 8810 ft 292 kts 116°
2026-05-06 13:05 32.05220 35.03145 8300 ft 294 kts 116°
2026-05-06 13:05 32.04364 35.05312 7804 ft 286 kts 116°
2026-05-06 13:05 32.03532 35.07421 7361 ft 283 kts 116°
2026-05-06 13:06 32.02698 35.09530 6926 ft 284 kts 116°
2026-05-06 13:06 32.01868 35.11635 6527 ft 282 kts 116°
2026-05-06 13:06 32.01020 35.13679 6318 ft 274 kts 121°
2026-05-06 13:06 31.99819 35.15396 6269 ft 270 kts 143°
2026-05-06 13:07 31.98207 35.16313 6246 ft 249 kts 171°
2026-05-06 13:07 31.96541 35.16483 6255 ft 236 kts 181°
2026-05-06 13:07 31.94923 35.16367 6253 ft 232 kts 192°
2026-05-06 13:07 31.93357 35.15947 6242 ft 231 kts 196°
2026-05-06 13:08 31.91804 35.15458 6258 ft 230 kts 200°
2026-05-06 13:08 31.90427 35.14538 6115 ft 230 kts 228°
2026-05-06 13:08 31.89714 35.12885 5721 ft 230 kts 260°
2026-05-06 13:08 31.89609 35.11007 5337 ft 228 kts 270°
2026-05-06 13:09 31.89845 35.09204 4956 ft 221 kts 291°
2026-05-06 13:09 31.90522 35.07654 4593 ft 205 kts 299°
2026-05-06 13:09 31.91231 35.06257 4239 ft 193 kts 300°
2026-05-06 13:09 31.91920 35.04915 3767 ft 190 kts 300°
2026-05-06 13:10 31.92600 35.03589 3267 ft 188 kts 300°
2026-05-06 13:10 31.93264 35.02298 2908 ft 186 kts 301°
2026-05-06 13:10 31.93938 35.00996 2575 ft 184 kts 301°
2026-05-06 13:10 31.94598 34.99724 2299 ft 181 kts 301°
2026-05-06 13:11 31.95244 34.98477 2048 ft 172 kts 301°
2026-05-06 13:11 31.95836 34.97347 1772 ft 157 kts 302°
2026-05-06 13:11 31.96404 34.96258 1560 ft 156 kts 302°
2026-05-06 13:11 31.96969 34.95181 1349 ft 154 kts 302°
2026-05-06 13:12 31.97533 34.94111 1116 ft 153 kts 302°
2026-05-06 13:12 31.98091 34.93041 964 ft 153 kts 302°
2026-05-06 13:12 31.98656 34.91975 727 ft 152 kts 302°
2026-05-06 13:12 31.99214 34.90911 486 ft 153 kts 302°
2026-05-06 13:13 31.99773 34.89846 255 ft 153 kts 302°
2026-05-06 13:13 32.00326 34.88795 131 ft 139 kts 301°
2026-05-06 13:13 32.00725 34.88022 123 ft 82 kts 300°
2026-05-06 13:13 32.00936 34.87613 124 ft 48 kts 300°
2026-05-06 13:14 32.01058 34.87310 127 ft 25 kts 275°
2026-05-06 13:14 32.01065 34.87129 127 ft 18 kts 272°
2026-05-06 13:14 32.01061 34.87053 127 ft 2 kts 242°
2026-05-06 13:14 32.01033 34.87046 127 ft 8 kts 180°
2026-05-06 13:15 32.00985 34.87096 123 ft 9 kts 110°
2026-05-06 13:15 32.00936 34.87193 122 ft 23 kts 122°
2026-05-06 13:15 32.00826 34.87401 124 ft 31 kts 122°
2026-05-06 13:15 32.00716 34.87612 124 ft 29 kts 121°
2026-05-06 13:16 32.00614 34.87809 123 ft 27 kts 121°
2026-05-06 13:16 32.00518 34.87992 124 ft 25 kts 122°
2026-05-06 13:16 32.00419 34.88182 123 ft 29 kts 121°
2026-05-06 13:16 32.00303 34.88407 124 ft 34 kts 121°
2026-05-06 13:17 32.00184 34.88636 125 ft 32 kts 121°
2026-05-06 13:17 32.00107 34.88783 123 ft 30 kts 122°
2026-05-06 13:17 32.00002 34.88984 126 ft 25 kts 122°
2026-05-06 13:17 31.99916 34.89122 126 ft 16 kts 146°
2026-05-06 13:18 31.99825 34.89122 124 ft 9 kts 190°
2026-05-06 13:18 31.99796 34.89145 124 ft 8 kts 127°
2026-05-06 13:18 31.99781 34.89190 129 ft 5 kts 109°
2026-05-06 13:18 31.99776 34.89208 127 ft 0 kts 108°
2026-05-06 13:19 31.99776 34.89207 127 ft 0 kts 108°